COSMOS 2251 DEB, 47068

Orbit data source: Space-Track

COSMOS 2251 DEB, 47068 is space debris in LEO originally from a launch on Wed, 16 Jun 1993 UTC launched from the Plesetsk Missile And Space Complex (PKMTR). The debris from Iridium 33, an American commercial communications satellite, has been tracked extensively since its accidental collision with the defunct Russian satellite Cosmos 2251 in 2009. This event, occurring at high speed in low Earth orbit (LEO), generated thousands of pieces of space debris, significantly increasing the risk of further collisions. The Iridium 33 debris cloud has impacted space traffic management and orbital debris mitigation strategies, making it a subject of ongoing study in space situational awareness.

Loading next visibility...
Identifier
47068, 1993-036BXY
Orbit
LEO
Country
Flag of CISCIS
Related business
Manufacturer
Unknown
Mission
Spacecraft
Bus & Motor
Unknown
Mass
Unknown
Launch date (UTC)
1993-06-16 (33 years ago)
Launch vehicle
Unknown
Launch site
Plesetsk Missile And Space Complex (PKMTR)
Object type
Payload
Rocket body
Debris
Shape & HBR
Unknown shape, 0.1 m
Radar Cross Section
Medium (>0.1 m² and <1 m²)

Expand to show TLE details & history
Last TLE update: 4 days ago

TLE from 4 days ago
0 COSMOS 2251 DEB
1 47068U 93036BXY 26169.81701921  .00001708  00000-0  40618-3 0  9997
2 47068  74.0227 207.7892 0019032 255.5570 104.3481 14.54540584644902
Epoch: 2026-06-18T19:36Z
TLE epoch observation values (Epoch: 2026-06-18T19:36:30.459Z)
Latitude
-0.00002°
Longitude
6.60737°
Altitude
716.858 km
Speed
7.495 km/s
True Right ascension
13h 51m 09s
True Declination
0° 00' 00"
Sunlit
Object was in full shadow at epoch
Visualization orbit readout
Latitude
Unknown
Longitude
Unknown
Altitude
Unknown
Speed
Unknown
Apparent Right ascension
Unknown
Apparent Declination
Unknown
Sunlit
N/A
Visualization observer readout
Local Sidereal Time
23:27:13
Azimuth
Unknown
Elevation
Unknown
Doppler factor
Unknown
Orbital elements
Apogee altitude
721.949 km
Perigee altitude
694.975 km
Semi-major axis
7,086.599 km
Eccentricity
0.0019
Inclination
74.0227°
RAAN
207.7892°
Arg. of periapsis
255.557°
True anomaly
104.55926°
Mean anomaly
104.3481°
Eccentric anomaly
104.45369°
Mean motion
3.6382 °/min
Orbital period
98.95 mins
BSTAR
0.00040618
Loading maneuver chart data...
Computing Atmospheric mass density...

Documentation

Showing up to 5 results
|